QFA535 YBBN-YSSY

Flight info

Callsign QFA535
Flight time 1h 18m
Altitude 36000
Route BN H91 IGDAM H652 TESAT
Aircraft B738/M-SDE2E3FGHIRWXY/LB1

Departure

Time 2026-04-26 05:37
Airport Brisbane International Airport (YBBN)

Arrival

Time 2026-04-26 06:56
Airport Sydney Kingsford Smith International Airport (YSSY)
Time Latitude Longitude Altitude Speed Heading
2026-04-26 05:13 -27.38474 153.12135 20 ft 0 kts 296°
2026-04-26 05:27 -27.38489 153.12159 22 ft 4 kts 313°
2026-04-26 05:27 -27.38498 153.12173 20 ft 2 kts 296°
2026-04-26 05:28 -27.38502 153.12192 23 ft 4 kts 240°
2026-04-26 05:28 -27.38493 153.12213 24 ft 4 kts 248°
2026-04-26 05:28 -27.38484 153.12241 21 ft 4 kts 263°
2026-04-26 05:28 -27.38487 153.12265 21 ft 3 kts 297°
2026-04-26 05:29 -27.38496 153.12285 24 ft 0 kts 297°
2026-04-26 05:31 -27.38493 153.12281 22 ft 3 kts 303°
2026-04-26 05:32 -27.38457 153.12280 20 ft 8 kts 42°
2026-04-26 05:32 -27.38435 153.12344 20 ft 10 kts 83°
2026-04-26 05:32 -27.38445 153.12419 22 ft 10 kts 114°
2026-04-26 05:32 -27.38453 153.12494 20 ft 11 kts 56°
2026-04-26 05:33 -27.38380 153.12543 20 ft 14 kts 27°
2026-04-26 05:33 -27.38276 153.12603 20 ft 19 kts 27°
2026-04-26 05:33 -27.38146 153.12677 20 ft 23 kts 26°
2026-04-26 05:33 -27.37998 153.12762 22 ft 24 kts 27°
2026-04-26 05:34 -27.37855 153.12843 20 ft 23 kts 27°
2026-04-26 05:34 -27.37717 153.12923 20 ft 22 kts 27°
2026-04-26 05:34 -27.37584 153.12998 20 ft 21 kts 26°
2026-04-26 05:34 -27.37454 153.13073 20 ft 21 kts 26°
2026-04-26 05:35 -27.37339 153.13138 20 ft 16 kts 27°
2026-04-26 05:35 -27.37266 153.13211 20 ft 12 kts 95°
2026-04-26 05:35 -27.37294 153.13281 20 ft 8 kts 117°
2026-04-26 05:35 -27.37320 153.13339 21 ft 8 kts 117°
2026-04-26 05:36 -27.37351 153.13392 21 ft 9 kts 134°
2026-04-26 05:36 -27.37420 153.13431 22 ft 14 kts 169°
2026-04-26 05:36 -27.37505 153.13409 21 ft 8 kts 206°
2026-04-26 05:36 -27.37577 153.13368 21 ft 29 kts 207°
2026-04-26 05:37 -27.37967 153.13145 20 ft 95 kts 207°
2026-04-26 05:37 -27.38721 153.12719 22 ft 145 kts 206°
2026-04-26 05:37 -27.39681 153.12142 345 ft 159 kts 204°
2026-04-26 05:37 -27.40656 153.11584 975 ft 155 kts 200°
2026-04-26 05:38 -27.41621 153.11063 1530 ft 164 kts 195°
2026-04-26 05:38 -27.42814 153.11104 1832 ft 182 kts 150°
2026-04-26 05:38 -27.44005 153.11818 2111 ft 203 kts 151°
2026-04-26 05:38 -27.45275 153.12523 2593 ft 209 kts 151°
2026-04-26 05:39 -27.46587 153.13250 3128 ft 214 kts 150°
2026-04-26 05:39 -27.47932 153.14000 3718 ft 216 kts 150°
2026-04-26 05:39 -27.49303 153.14683 4529 ft 218 kts 162°
2026-04-26 05:39 -27.50886 153.14712 4952 ft 243 kts 184°
2026-04-26 05:40 -27.52611 153.14291 5347 ft 262 kts 188°
2026-04-26 05:40 -27.54411 153.13823 6050 ft 267 kts 188°
2026-04-26 05:40 -27.56232 153.13315 6851 ft 271 kts 193°
2026-04-26 05:40 -27.58031 153.12617 7644 ft 277 kts 195°
2026-04-26 05:41 -27.59855 153.11873 8408 ft 280 kts 195°
2026-04-26 05:41 -27.61703 153.11124 9217 ft 284 kts 195°
2026-04-26 05:41 -27.63588 153.10437 10039 ft 287 kts 193°
2026-04-26 05:41 -27.65528 153.09796 10606 ft 298 kts 192°
2026-04-26 05:42 -27.67617 153.09119 10800 ft 324 kts 193°
2026-04-26 05:42 -27.69860 153.08386 11006 ft 346 kts 193°
2026-04-26 05:42 -27.72220 153.07606 11498 ft 357 kts 194°
2026-04-26 05:42 -27.74621 153.06806 12199 ft 361 kts 194°
2026-04-26 05:43 -27.77039 153.05995 12953 ft 365 kts 193°
2026-04-26 05:43 -27.79489 153.05176 13709 ft 369 kts 195°
2026-04-26 05:43 -27.81962 153.04345 14398 ft 374 kts 194°
2026-04-26 05:43 -27.84428 153.03367 15133 ft 377 kts 197°
2026-04-26 05:44 -27.86881 153.02285 15848 ft 381 kts 198°
2026-04-26 05:44 -27.89358 153.01168 16602 ft 384 kts 199°
2026-04-26 05:44 -27.91850 153.00047 17331 ft 387 kts 198°
2026-04-26 05:44 -27.94336 152.98938 17986 ft 392 kts 200°
2026-04-26 05:45 -27.96845 152.97834 18644 ft 395 kts 200°
2026-04-26 05:45 -27.99417 152.96708 19302 ft 396 kts 198°
2026-04-26 05:45 -28.01979 152.95579 20082 ft 394 kts 200°
2026-04-26 05:45 -28.04551 152.94450 20640 ft 399 kts 200°
2026-04-26 05:46 -28.07140 152.93316 21272 ft 401 kts 200°
2026-04-26 05:46 -28.09748 152.92172 21919 ft 402 kts 200°
2026-04-26 05:46 -28.12364 152.91016 22510 ft 405 kts 201°
2026-04-26 05:46 -28.15000 152.89844 23015 ft 410 kts 201°
2026-04-26 05:47 -28.17670 152.88653 23503 ft 415 kts 201°
2026-04-26 05:47 -28.20365 152.87450 24033 ft 416 kts 201°
2026-04-26 05:47 -28.23065 152.86245 24513 ft 418 kts 201°
2026-04-26 05:47 -28.25778 152.85034 24983 ft 420 kts 201°
2026-04-26 05:48 -28.28504 152.83817 25428 ft 422 kts 202°
2026-04-26 05:48 -28.31244 152.82593 25848 ft 425 kts 202°
2026-04-26 05:48 -28.34003 152.81360 26258 ft 427 kts 202°
2026-04-26 05:48 -28.36785 152.80117 26691 ft 430 kts 202°
2026-04-26 05:49 -28.39564 152.78875 27160 ft 430 kts 202°
2026-04-26 05:49 -28.45179 152.76362 27871 ft 437 kts 202°
2026-04-26 05:49 -28.47976 152.75108 28244 ft 439 kts 202°
2026-04-26 05:50 -28.50823 152.73832 28625 ft 441 kts 202°
2026-04-26 05:50 -28.53688 152.72548 28984 ft 443 kts 202°
2026-04-26 05:50 -28.56551 152.71264 29577 ft 438 kts 203°
2026-04-26 05:50 -28.59349 152.70009 30574 ft 426 kts 202°
2026-04-26 05:51 -28.62086 152.68779 31198 ft 421 kts 203°
2026-04-26 05:51 -28.64813 152.67554 31558 ft 423 kts 203°
2026-04-26 05:51 -28.67563 152.66316 31857 ft 425 kts 203°
2026-04-26 05:51 -28.70312 152.65078 32258 ft 424 kts 203°
2026-04-26 05:52 -28.73051 152.63845 32749 ft 422 kts 203°
2026-04-26 05:52 -28.75772 152.62619 33219 ft 420 kts 204°
2026-04-26 05:52 -28.78448 152.61413 33612 ft 419 kts 204°
2026-04-26 05:52 -28.81156 152.60191 33998 ft 419 kts 204°
2026-04-26 05:53 -28.83864 152.58969 34385 ft 418 kts 204°
2026-04-26 05:53 -28.86525 152.57621 34644 ft 418 kts 208°
2026-04-26 05:53 -28.89116 152.56113 34918 ft 419 kts 209°
2026-04-26 05:53 -28.91694 152.54564 35251 ft 418 kts 210°
2026-04-26 05:54 -28.94263 152.53007 35570 ft 418 kts 210°
2026-04-26 05:54 -28.96828 152.51457 35846 ft 418 kts 210°
2026-04-26 05:54 -28.99401 152.49908 36186 ft 417 kts 210°
2026-04-26 05:55 -29.04586 152.46805 36241 ft 423 kts 210°
2026-04-26 05:55 -29.09790 152.43703 36236 ft 419 kts 210°
2026-04-26 05:56 -29.14889 152.40663 36251 ft 416 kts 210°
2026-04-26 05:56 -29.20027 152.37595 36238 ft 417 kts 208°
2026-04-26 05:57 -29.25113 152.34553 36237 ft 418 kts 210°
2026-04-26 05:57 -29.30288 152.31455 36252 ft 421 kts 209°
2026-04-26 05:58 -29.35463 152.28353 36256 ft 424 kts 209°
2026-04-26 05:58 -29.40710 152.25205 36239 ft 426 kts 209°
2026-04-26 05:59 -29.45965 152.22049 36239 ft 426 kts 209°
2026-04-26 05:59 -29.51204 152.18897 36242 ft 424 kts 209°
2026-04-26 06:00 -29.56427 152.15753 36240 ft 423 kts 209°
2026-04-26 06:00 -29.61627 152.12618 36246 ft 421 kts 209°
2026-04-26 06:01 -29.66803 152.09494 36246 ft 419 kts 209°
2026-04-26 06:01 -29.72160 152.06861 36237 ft 421 kts 196°
2026-04-26 06:02 -29.77885 152.05383 36245 ft 422 kts 194°
2026-04-26 06:02 -29.83621 152.03950 36247 ft 422 kts 194°
2026-04-26 06:03 -29.89313 152.02487 36246 ft 423 kts 194°
2026-04-26 06:03 -29.95056 152.00989 36246 ft 423 kts 194°
2026-04-26 06:04 -30.00814 151.99480 36253 ft 424 kts 194°
2026-04-26 06:04 -30.06576 151.97968 36248 ft 425 kts 194°
2026-04-26 06:05 -30.12359 151.96450 36243 ft 426 kts 194°
2026-04-26 06:05 -30.18149 151.94928 36252 ft 427 kts 194°
2026-04-26 06:06 -30.23947 151.93402 36246 ft 427 kts 194°
2026-04-26 06:06 -30.29740 151.91876 36239 ft 427 kts 194°
2026-04-26 06:07 -30.35406 151.89916 36250 ft 424 kts 203°
2026-04-26 06:07 -30.40866 151.87325 36238 ft 424 kts 204°
2026-04-26 06:08 -30.46276 151.84731 36243 ft 423 kts 204°
2026-04-26 06:08 -30.51734 151.82155 36245 ft 423 kts 203°
2026-04-26 06:09 -30.57197 151.79597 36237 ft 423 kts 203°
2026-04-26 06:09 -30.62659 151.77044 36241 ft 423 kts 203°
2026-04-26 06:10 -30.68118 151.74489 36250 ft 423 kts 203°
2026-04-26 06:10 -30.73585 151.71926 36248 ft 424 kts 203°
2026-04-26 06:11 -30.79055 151.69359 36246 ft 424 kts 203°
2026-04-26 06:11 -30.84526 151.66788 36246 ft 424 kts 203°
2026-04-26 06:12 -30.90010 151.64208 36257 ft 425 kts 203°
2026-04-26 06:12 -30.95462 151.61639 36248 ft 425 kts 203°
2026-04-26 06:13 -31.00945 151.59053 36249 ft 425 kts 203°
2026-04-26 06:13 -31.06430 151.56462 36243 ft 425 kts 203°
2026-04-26 06:14 -31.11915 151.53868 36248 ft 425 kts 203°
2026-04-26 06:14 -31.17402 151.51270 36243 ft 425 kts 203°
2026-04-26 06:15 -31.22882 151.48672 36242 ft 425 kts 203°
2026-04-26 06:15 -31.27444 151.46507 36246 ft 425 kts 203°
2026-04-26 06:16 -31.32927 151.43901 36237 ft 425 kts 203°
2026-04-26 06:16 -31.38420 151.41288 36233 ft 426 kts 203°
2026-04-26 06:17 -31.43946 151.38775 36237 ft 426 kts 201°
2026-04-26 06:17 -31.49458 151.36344 36237 ft 426 kts 201°
2026-04-26 06:18 -31.54998 151.33889 36240 ft 426 kts 201°
2026-04-26 06:18 -31.60344 151.30981 36231 ft 423 kts 219°
2026-04-26 06:18 -31.62351 151.28475 36232 ft 423 kts 237°
2026-04-26 06:19 -31.63599 151.25365 36234 ft 423 kts 254°
2026-04-26 06:19 -31.63972 151.21948 36227 ft 425 kts 271°
2026-04-26 06:19 -31.63605 151.18500 36238 ft 426 kts 279°
2026-04-26 06:20 -31.62618 151.12057 36203 ft 426 kts 268°
2026-04-26 06:20 -31.63003 151.08650 36221 ft 423 kts 252°
2026-04-26 06:20 -31.64083 151.05438 36230 ft 422 kts 244°
2026-04-26 06:21 -31.66718 150.99259 36209 ft 424 kts 242°
2026-04-26 06:21 -31.69483 150.93133 36208 ft 426 kts 237°
2026-04-26 06:21 -31.71481 150.90602 36220 ft 425 kts 214°
2026-04-26 06:22 -31.74149 150.89129 36219 ft 427 kts 195°
2026-04-26 06:22 -31.77081 150.88590 36211 ft 429 kts 182°
2026-04-26 06:22 -31.80070 150.88665 36230 ft 430 kts 179°
2026-04-26 06:23 -31.86064 150.88958 36063 ft 435 kts 179°
2026-04-26 06:23 -31.89110 150.89099 35565 ft 437 kts 179°
2026-04-26 06:23 -31.92142 150.89225 35015 ft 436 kts 179°
2026-04-26 06:23 -31.95155 150.89339 34636 ft 430 kts 179°
2026-04-26 06:24 -31.98133 150.89444 34206 ft 427 kts 179°
2026-04-26 06:24 -32.01091 150.89545 33735 ft 423 kts 179°
2026-04-26 06:24 -32.04026 150.89643 33290 ft 419 kts 179°
2026-04-26 06:24 -32.06926 150.89740 32873 ft 415 kts 179°
2026-04-26 06:25 -32.09804 150.89837 32466 ft 411 kts 179°
2026-04-26 06:25 -32.12620 150.89932 32066 ft 408 kts 179°
2026-04-26 06:25 -32.15444 150.90027 31658 ft 405 kts 179°
2026-04-26 06:25 -32.18243 150.90122 31263 ft 401 kts 179°
2026-04-26 06:26 -32.21021 150.90216 30878 ft 398 kts 178°
2026-04-26 06:26 -32.23784 150.90310 30488 ft 395 kts 178°
2026-04-26 06:26 -32.26528 150.90403 30068 ft 392 kts 178°
2026-04-26 06:26 -32.29247 150.90495 29616 ft 389 kts 178°
2026-04-26 06:27 -32.31941 150.90587 29221 ft 385 kts 178°
2026-04-26 06:27 -32.34608 150.90678 28804 ft 381 kts 178°
2026-04-26 06:27 -32.37243 150.90767 28416 ft 378 kts 178°
2026-04-26 06:27 -32.39862 150.90857 28012 ft 375 kts 178°
2026-04-26 06:28 -32.42461 150.90945 27621 ft 372 kts 178°
2026-04-26 06:28 -32.45035 150.91033 27225 ft 369 kts 177°
2026-04-26 06:28 -32.47595 150.91121 26838 ft 367 kts 178°
2026-04-26 06:28 -32.50134 150.91233 26455 ft 364 kts 173°
2026-04-26 06:29 -32.52623 150.91607 26155 ft 359 kts 171°
2026-04-26 06:29 -32.55090 150.92060 25780 ft 358 kts 170°
2026-04-26 06:29 -32.57528 150.92523 25413 ft 359 kts 170°
2026-04-26 06:29 -32.59990 150.92987 25041 ft 358 kts 169°
2026-04-26 06:30 -32.62450 150.93443 24664 ft 358 kts 169°
2026-04-26 06:30 -32.64915 150.93895 24270 ft 359 kts 169°
2026-04-26 06:30 -32.67393 150.94344 23877 ft 361 kts 169°
2026-04-26 06:30 -32.69879 150.94794 23439 ft 362 kts 169°
2026-04-26 06:31 -32.72360 150.95238 23018 ft 359 kts 170°
2026-04-26 06:31 -32.74823 150.95683 22615 ft 357 kts 168°
2026-04-26 06:31 -32.77269 150.96124 22232 ft 354 kts 171°
2026-04-26 06:31 -32.79697 150.96557 21832 ft 352 kts 168°
2026-04-26 06:32 -32.82116 150.96986 21398 ft 351 kts 171°
2026-04-26 06:32 -32.84529 150.97414 21012 ft 349 kts 169°
2026-04-26 06:32 -32.86928 150.97839 20637 ft 347 kts 169°
2026-04-26 06:32 -32.89313 150.98265 20263 ft 345 kts 170°
2026-04-26 06:33 -32.91686 150.98687 19902 ft 343 kts 170°
2026-04-26 06:33 -32.94045 150.99106 19533 ft 342 kts 169°
2026-04-26 06:33 -32.96391 150.99524 19181 ft 340 kts 170°
2026-04-26 06:33 -32.98735 150.99941 18750 ft 341 kts 170°
2026-04-26 06:34 -33.01097 151.00361 18210 ft 344 kts 169°
2026-04-26 06:34 -33.03462 151.00782 17782 ft 343 kts 170°
2026-04-26 06:34 -33.05811 151.01201 17394 ft 340 kts 170°
2026-04-26 06:34 -33.08146 151.01617 17017 ft 338 kts 170°
2026-04-26 06:35 -33.10463 151.02031 16655 ft 335 kts 170°
2026-04-26 06:35 -33.12760 151.02442 16291 ft 333 kts 169°
2026-04-26 06:35 -33.15043 151.02850 15942 ft 330 kts 170°
2026-04-26 06:35 -33.17220 151.03239 15594 ft 328 kts 171°
2026-04-26 06:36 -33.19475 151.03642 15247 ft 326 kts 171°
2026-04-26 06:36 -33.21715 151.04043 14894 ft 324 kts 171°
2026-04-26 06:36 -33.23941 151.04443 14546 ft 323 kts 171°
2026-04-26 06:36 -33.26161 151.04860 14192 ft 322 kts 169°
2026-04-26 06:37 -33.28366 151.05285 13821 ft 321 kts 170°
2026-04-26 06:37 -33.30568 151.05709 13435 ft 319 kts 170°
2026-04-26 06:37 -33.32759 151.06130 13071 ft 317 kts 169°
2026-04-26 06:37 -33.34931 151.06546 12715 ft 315 kts 170°
2026-04-26 06:38 -33.37088 151.06959 12370 ft 313 kts 170°
2026-04-26 06:38 -33.39237 151.07370 12024 ft 311 kts 169°
2026-04-26 06:38 -33.41370 151.07779 11685 ft 310 kts 169°
2026-04-26 06:38 -33.43488 151.08186 11344 ft 308 kts 170°
2026-04-26 06:39 -33.45596 151.08590 11014 ft 306 kts 169°
2026-04-26 06:39 -33.47697 151.08994 10677 ft 305 kts 169°
2026-04-26 06:39 -33.49789 151.09398 10354 ft 304 kts 170°
2026-04-26 06:39 -33.51852 151.09795 10220 ft 296 kts 169°
2026-04-26 06:40 -33.53839 151.10177 10073 ft 288 kts 169°
2026-04-26 06:40 -33.55804 151.10555 9809 ft 285 kts 169°
2026-04-26 06:40 -33.57756 151.10932 9510 ft 284 kts 169°
2026-04-26 06:40 -33.59700 151.11305 9224 ft 282 kts 170°
2026-04-26 06:41 -33.61627 151.11678 8980 ft 278 kts 169°
2026-04-26 06:41 -33.63514 151.12050 8829 ft 273 kts 169°
2026-04-26 06:41 -33.65381 151.12417 8696 ft 271 kts 170°
2026-04-26 06:41 -33.67244 151.12786 8557 ft 272 kts 170°
2026-04-26 06:42 -33.69114 151.13166 8410 ft 273 kts 167°
2026-04-26 06:42 -33.70808 151.14148 8260 ft 273 kts 139°
2026-04-26 06:42 -33.72160 151.15747 8145 ft 274 kts 134°
2026-04-26 06:42 -33.73480 151.17407 8004 ft 276 kts 133°
2026-04-26 06:43 -33.74809 151.19085 7864 ft 276 kts 133°
2026-04-26 06:43 -33.76127 151.20741 7700 ft 273 kts 133°
2026-04-26 06:43 -33.77433 151.22374 7555 ft 269 kts 134°
2026-04-26 06:43 -33.78725 151.23983 7417 ft 267 kts 134°
2026-04-26 06:44 -33.80020 151.25593 7286 ft 267 kts 134°
2026-04-26 06:44 -33.81314 151.27202 7151 ft 268 kts 134°
2026-04-26 06:44 -33.82679 151.28722 6997 ft 268 kts 148°
2026-04-26 06:44 -33.84418 151.29461 6941 ft 265 kts 168°
2026-04-26 06:45 -33.86244 151.29922 6740 ft 269 kts 168°
2026-04-26 06:45 -33.88044 151.30375 6600 ft 267 kts 168°
2026-04-26 06:45 -33.89857 151.30838 6440 ft 265 kts 168°
2026-04-26 06:45 -33.91678 151.31308 6303 ft 264 kts 168°
2026-04-26 06:46 -33.93481 151.31778 6170 ft 265 kts 168°
2026-04-26 06:46 -33.95266 151.32243 6055 ft 267 kts 168°
2026-04-26 06:46 -33.97092 151.32721 5881 ft 272 kts 168°
2026-04-26 06:46 -33.98943 151.33205 5678 ft 272 kts 168°
2026-04-26 06:47 -34.00778 151.33684 5474 ft 268 kts 167°
2026-04-26 06:47 -34.02593 151.34161 5287 ft 266 kts 167°
2026-04-26 06:47 -34.04405 151.34636 5108 ft 266 kts 167°
2026-04-26 06:47 -34.06211 151.35110 4922 ft 266 kts 167°
2026-04-26 06:48 -34.08016 151.35582 4727 ft 266 kts 167°
2026-04-26 06:48 -34.09824 151.36056 4542 ft 265 kts 167°
2026-04-26 06:48 -34.11627 151.36529 4344 ft 264 kts 167°
2026-04-26 06:48 -34.13400 151.36994 4213 ft 260 kts 166°
2026-04-26 06:49 -34.15195 151.37116 3984 ft 261 kts 191°
2026-04-26 06:49 -34.16792 151.36217 3810 ft 249 kts 223°
2026-04-26 06:49 -34.17719 151.34586 3681 ft 231 kts 255°
2026-04-26 06:49 -34.18082 151.32724 3556 ft 224 kts 262°
2026-04-26 06:50 -34.18381 151.30901 3410 ft 217 kts 262°
2026-04-26 06:50 -34.18467 151.29109 3242 ft 214 kts 285°
2026-04-26 06:50 -34.17754 151.27587 3147 ft 208 kts 319°
2026-04-26 06:50 -34.16658 151.26456 3041 ft 207 kts 323°
2026-04-26 06:51 -34.15568 151.25371 3016 ft 204 kts 322°
2026-04-26 06:51 -34.13280 151.23647 2977 ft 184 kts 351°
2026-04-26 06:51 -34.12043 151.23338 2933 ft 182 kts 347°
2026-04-26 06:52 -34.10789 151.22969 2726 ft 187 kts 348°
2026-04-26 06:52 -34.09524 151.22625 2485 ft 185 kts 349°
2026-04-26 06:52 -34.08278 151.22299 2242 ft 179 kts 350°
2026-04-26 06:52 -34.07085 151.21988 1999 ft 172 kts 350°
2026-04-26 06:53 -34.05980 151.21699 1794 ft 155 kts 351°
2026-04-26 06:53 -34.04968 151.21435 1596 ft 142 kts 352°
2026-04-26 06:53 -34.04028 151.21191 1397 ft 136 kts 350°
2026-04-26 06:53 -34.03096 151.20948 1218 ft 139 kts 352°
2026-04-26 06:54 -34.02146 151.20708 1055 ft 138 kts 352°
2026-04-26 06:54 -34.01211 151.20460 812 ft 139 kts 352°
2026-04-26 06:54 -34.00272 151.20196 684 ft 136 kts 351°
2026-04-26 06:54 -33.99346 151.19959 465 ft 136 kts 354°
2026-04-26 06:55 -33.98424 151.19721 309 ft 135 kts 353°
2026-04-26 06:55 -33.97508 151.19481 138 ft 134 kts 353°
2026-04-26 06:55 -33.96613 151.19255 25 ft 127 kts 349°
2026-04-26 06:55 -33.95927 151.19078 27 ft 70 kts 347°
2026-04-26 06:56 -33.95601 151.18994 25 ft 36 kts 347°
2026-04-26 06:56 -33.95376 151.18906 24 ft 32 kts 333°
2026-04-26 06:56 -33.95254 151.18810 26 ft 11 kts 320°
2026-04-26 06:56 -33.95199 151.18753 28 ft 10 kts 318°
2026-04-26 06:57 -33.95151 151.18700 28 ft 10 kts 318°
2026-04-26 06:57 -33.95099 151.18639 29 ft 11 kts 308°
2026-04-26 06:57 -33.95093 151.18550 29 ft 11 kts 258°
2026-04-26 06:57 -33.95110 151.18458 29 ft 11 kts 258°
2026-04-26 06:58 -33.95127 151.18363 29 ft 12 kts 257°
2026-04-26 06:58 -33.95145 151.18263 29 ft 12 kts 258°
2026-04-26 06:58 -33.95158 151.18190 29 ft 7 kts 258°
2026-04-26 06:58 -33.95170 151.18125 29 ft 9 kts 258°
2026-04-26 06:59 -33.95186 151.18034 29 ft 13 kts 258°
2026-04-26 06:59 -33.95136 151.17953 29 ft 14 kts 345°
2026-04-26 06:59 -33.95036 151.17927 29 ft 15 kts 348°
2026-04-26 06:59 -33.94929 151.17899 29 ft 16 kts 347°
2026-04-26 07:00 -33.94823 151.17872 29 ft 15 kts 348°
2026-04-26 07:00 -33.94721 151.17844 29 ft 15 kts 347°
2026-04-26 07:00 -33.94622 151.17819 29 ft 14 kts 348°
2026-04-26 07:00 -33.94528 151.17794 29 ft 14 kts 347°
2026-04-26 07:01 -33.94433 151.17766 29 ft 15 kts 346°
2026-04-26 07:01 -33.94328 151.17734 29 ft 17 kts 345°
2026-04-26 07:01 -33.94208 151.17696 28 ft 19 kts 345°
2026-04-26 07:01 -33.94071 151.17657 27 ft 21 kts 347°
2026-04-26 07:02 -33.93921 151.17616 28 ft 22 kts 348°
2026-04-26 07:02 -33.93774 151.17578 28 ft 21 kts 348°
2026-04-26 07:02 -33.93683 151.17555 28 ft 20 kts 347°
2026-04-26 07:02 -33.93552 151.17520 28 ft 19 kts 347°
2026-04-26 07:03 -33.93424 151.17506 29 ft 18 kts 10°
2026-04-26 07:03 -33.93301 151.17483 29 ft 18 kts 347°
2026-04-26 07:03 -33.93183 151.17452 29 ft 17 kts 348°
2026-04-26 07:03 -33.93075 151.17425 29 ft 15 kts 348°
2026-04-26 07:04 -33.92993 151.17426 29 ft 11 kts 49°
2026-04-26 07:04 -33.92992 151.17511 29 ft 11 kts 101°
2026-04-26 07:04 -33.93007 151.17604 29 ft 12 kts 101°
2026-04-26 07:04 -33.93026 151.17689 29 ft 9 kts 114°
2026-04-26 07:05 -33.93054 151.17725 29 ft 4 kts 170°
2026-04-26 07:05 -33.93086 151.17720 29 ft 5 kts 191°
2026-04-26 07:05 -33.93107 151.17715 29 ft 1 kts 189°
2026-04-26 07:05 -33.93113 151.17714 29 ft 0 kts 190°